CZ-6A DEB, 54356

Orbit data source: Space-Track

CZ-6A DEB, 54356 is space debris in SSO originally from a launch on Fri, 11 Nov 2022 UTC launched from the Taiyaun Space Center, China (TSC). Debris objects in space refer to the collection of defunct objects orbiting the Earth. Examples of debris include non-operational satellites, rocket bodies, and fragments generated from explosions, collisions, or faulty payload assembly.

Loading next visibility...
Identifier
54356, 2022-151DB
Orbit
SSO
Country
Flag of CNCN / PRC
Related business
Manufacturer
SAST
Mission
Spacecraft
Bus & Motor
Unknown
Mass
Unknown
Launch date (UTC)
2022-11-11 (4 years ago)
Launch vehicle
Unknown
Launch site
Taiyaun Space Center, China (TSC)
Object type
Payload
Rocket body
Debris
Shape & HBR
Unknown shape, 0.1 m
Radar Cross Section
Medium (>0.1 m² and <1 m²)

Expand to show TLE details & history
Last TLE update: 1 day ago

TLE from 1 day ago
0 CZ-6A DEB
1 54356U 22151DB  26235.59055738  .00002081  00000-0  70792-3 0  9993
2 54356  98.8681 295.6997 0064569 269.9763  89.4023 14.36517635196737
Epoch: 2026-08-23T14:10Z
TLE epoch observation values (Epoch: 2026-08-23T14:10:24.157Z)
Latitude
-0.00004°
Longitude
111.21463°
Altitude
772.776 km
Speed
7.468 km/s
True Right ascension
19h 42m 47s
True Declination
0° 00' 00"
Sunlit
Object was in full shadow at epoch
Visualization orbit readout
Latitude
Unknown
Longitude
Unknown
Altitude
Unknown
Speed
Unknown
Apparent Right ascension
Unknown
Apparent Declination
Unknown
Sunlit
N/A
Visualization observer readout
Local Sidereal Time
07:24:46
Azimuth
Unknown
Elevation
Unknown
Doppler factor
Unknown
Orbital elements
Apogee altitude
813.308 km
Perigee altitude
721.035 km
Semi-major axis
7,145.309 km
Eccentricity
0.00646
Inclination
98.8681°
RAAN
295.6997°
Arg. of periapsis
269.9763°
True anomaly
90.14221°
Mean anomaly
89.4023°
Eccentric anomaly
89.77225°
Mean motion
3.59345 °/min
Orbital period
100.18 mins
BSTAR
0.00070792
Loading maneuver chart data...
Computing Atmospheric mass density...
Loading historical data...
Loading historical data...
Loading historical data...
Loading historical data...
Loading historical data...
Loading historical data...
Loading historical data...

Documentation

Showing up to 5 results
|